TimePDT,TemperatureF,Dew PointF,Humidity,Sea Level PressureIn,VisibilityMPH,Wind Direction,Wind SpeedMPH,Gust SpeedMPH,PrecipitationIn,Events,Conditions,WindDirDegrees,DateUTC
12:53 AM,68.0,52.0,56,29.91,10.0,South,6.9,-,N/A,,Clear,170,2013-09-05 07:53:00
1:53 AM,64.0,52.0,65,29.91,10.0,South,9.2,-,N/A,,Clear,180,2013-09-05 08:53:00
2:53 AM,63.0,53.1,70,29.92,10.0,SE,10.4,-,N/A,,Clear,130,2013-09-05 09:53:00
3:53 AM,62.1,53.1,72,29.93,10.0,SE,6.9,-,N/A,,Clear,140,2013-09-05 10:53:00
4:53 AM,62.1,52.0,70,29.92,10.0,SE,8.1,-,N/A,,Clear,140,2013-09-05 11:53:00
5:53 AM,61.0,54.0,78,29.94,10.0,SSE,3.5,-,N/A,,Clear,150,2013-09-05 12:53:00
6:53 AM,60.1,54.0,80,29.96,10.0,SE,3.5,-,N/A,,Clear,130,2013-09-05 13:53:00
7:53 AM,63.0,55.0,75,29.99,10.0,SE,4.6,-,N/A,,Clear,130,2013-09-05 14:53:00
8:53 AM,66.9,55.0,66,29.98,10.0,SE,9.2,-,N/A,,Clear,140,2013-09-05 15:53:00
9:53 AM,72.0,55.0,55,29.98,10.0,South,10.4,-,N/A,,Clear,170,2013-09-05 16:53:00
10:53 AM,73.0,55.9,55,29.99,10.0,South,12.7,18.4,N/A,,Clear,180,2013-09-05 17:53:00
11:53 AM,75.9,55.9,50,29.99,10.0,Variable,5.8,-,N/A,,Clear,0,2013-09-05 18:53:00
12:53 PM,79.0,55.9,45,29.98,10.0,SW,8.1,-,N/A,,Clear,220,2013-09-05 19:53:00
1:53 PM,81.0,55.9,42,29.97,10.0,South,11.5,-,N/A,,Clear,180,2013-09-05 20:53:00
2:53 PM,82.9,52.0,34,29.96,10.0,North,-9999.0,-,N/A,,Clear,0,2013-09-05 21:53:00
3:53 PM,84.9,48.0,28,29.94,10.0,North,-9999.0,-,N/A,,Clear,0,2013-09-05 22:53:00
4:53 PM,86.0,52.0,31,29.92,10.0,SSE,9.2,-,N/A,,Clear,160,2013-09-05 23:53:00
5:53 PM,84.0,53.1,34,29.91,10.0,South,4.6,-,N/A,,Clear,190,2013-09-06 00:53:00
6:53 PM,82.9,54.0,37,29.90,10.0,South,4.6,-,N/A,,Clear,190,2013-09-06 01:53:00
7:53 PM,79.0,54.0,42,29.91,10.0,South,4.6,-,N/A,,Clear,180,2013-09-06 02:53:00
8:53 PM,75.0,52.0,44,29.92,10.0,ENE,3.5,-,N/A,,Clear,60,2013-09-06 03:53:00
10:53 PM,68.0,50.0,52,29.96,10.0,SSE,5.8,-,N/A,,Clear,150,2013-09-06 05:53:00
11:53 PM,72.0,45.0,38,29.97,10.0,ENE,5.8,-,N/A,,Clear,70,2013-09-06 06:53:00